Time,TemperatureF,DewpointF,PressureIn,WindDirection,WindDirectionDegrees,WindSpeedMPH,WindSpeedGustMPH,Humidity,HourlyPrecipIn,Conditions,Clouds,dailyrainin,SoftwareType,DateUTC
2015-07-29 00:03:00,77.0,74.0,29.99,North,11,0.0,0.0,92,-99.99,,,-99.99,,2015-07-29 04:03:00,
2015-07-29 00:13:00,77.0,74.0,29.99,North,11,0.0,0.0,92,-99.99,,,-99.99,,2015-07-29 04:13:00,
2015-07-29 00:23:00,77.0,75.0,29.99,North,11,0.0,0.0,93,-99.99,,,-99.99,,2015-07-29 04:23:00,
2015-07-29 00:34:00,76.0,74.0,29.99,North,11,0.0,0.0,93,-99.99,,,-99.99,,2015-07-29 04:34:00,
2015-07-29 00:54:00,76.0,74.0,29.98,North,11,0.0,0.0,94,-99.99,,,-99.99,,2015-07-29 04:54:00,
2015-07-29 01:05:00,76.0,74.0,29.98,North,11,0.0,0.0,94,-99.99,,,-99.99,,2015-07-29 05:05:00,
2015-07-29 01:13:00,76.0,74.0,29.98,North,11,0.0,0.0,94,-99.99,,,-99.99,,2015-07-29 05:13:00,
2015-07-29 01:34:00,75.0,75.0,29.96,NE,35,0.0,0.0,100,-99.99,,,-99.99,,2015-07-29 05:34:00,
2015-07-29 01:44:00,75.0,75.0,29.96,NE,35,0.0,0.0,100,-99.99,,,-99.99,,2015-07-29 05:44:00,
2015-07-29 01:54:00,75.0,75.0,29.96,NE,35,0.0,0.0,100,-99.99,,,-99.99,,2015-07-29 05:54:00,
2015-07-29 02:03:00,75.0,74.0,29.96,NE,35,0.0,0.0,97,-99.99,,,-99.99,,2015-07-29 06:03:00,
2015-07-29 02:13:00,75.0,74.0,29.96,NE,35,0.0,0.0,97,-99.99,,,-99.99,,2015-07-29 06:13:00,
2015-07-29 02:23:00,75.0,75.0,29.96,NE,35,0.0,0.0,100,-99.99,,,-99.99,,2015-07-29 06:23:00,
2015-07-29 02:44:00,75.0,75.0,29.97,NE,35,0.0,0.0,100,-99.99,,,-99.99,,2015-07-29 06:44:00,
2015-07-29 02:54:00,75.0,75.0,29.96,NE,35,0.0,0.0,100,-99.99,,,-99.99,,2015-07-29 06:54:00,
2015-07-29 03:04:00,74.0,73.0,29.95,NE,35,0.0,0.0,98,-99.99,,,-99.99,,2015-07-29 07:04:00,
2015-07-29 03:13:00,74.0,73.0,29.95,NE,35,0.0,0.0,98,-99.99,,,-99.99,,2015-07-29 07:13:00,
2015-07-29 03:23:00,74.0,73.0,29.95,NE,35,0.0,0.0,98,-99.99,,,-99.99,,2015-07-29 07:23:00,
2015-07-29 03:34:00,74.0,73.0,29.94,NE,35,0.0,0.0,98,-99.99,,,-99.99,,2015-07-29 07:34:00,
2015-07-29 03:43:00,74.0,73.0,29.94,NE,35,0.0,0.0,98,-99.99,,,-99.99,,2015-07-29 07:43:00,
2015-07-29 03:53:00,74.0,73.0,29.94,NE,35,0.0,0.0,98,-99.99,,,-99.99,,2015-07-29 07:53:00,
2015-07-29 04:03:00,74.0,74.0,29.93,NE,35,0.0,0.0,99,-99.99,,,-99.99,,2015-07-29 08:03:00,
2015-07-29 04:13:00,74.0,74.0,29.93,NE,35,0.0,0.0,99,-99.99,,,-99.99,,2015-07-29 08:13:00,
2015-07-29 04:23:00,74.0,74.0,29.93,NE,35,0.0,0.0,99,-99.99,,,-99.99,,2015-07-29 08:23:00,
2015-07-29 04:33:00,73.0,73.0,29.93,NE,35,0.0,0.0,99,-99.99,,,-99.99,,2015-07-29 08:33:00,
2015-07-29 04:43:00,73.0,73.0,29.93,NE,35,0.0,0.0,99,-99.99,,,-99.99,,2015-07-29 08:43:00,
2015-07-29 04:54:00,73.0,73.0,29.94,NE,35,0.0,0.0,99,-99.99,,,-99.99,,2015-07-29 08:54:00,
2015-07-29 05:03:00,73.0,73.0,29.94,NE,35,0.0,0.0,99,-99.99,,,-99.99,,2015-07-29 09:03:00,
2015-07-29 05:13:00,73.0,73.0,29.94,NE,35,0.0,0.0,99,-99.99,,,-99.99,,2015-07-29 09:13:00,
2015-07-29 05:23:00,73.0,73.0,29.95,NE,35,0.0,0.0,99,-99.99,,,-99.99,,2015-07-29 09:23:00,
2015-07-29 05:33:00,73.0,73.0,29.95,NE,35,0.0,0.0,100,-99.99,,,-99.99,,2015-07-29 09:33:00,
2015-07-29 05:44:00,73.0,73.0,29.95,NE,35,0.0,0.0,100,-99.99,,,-99.99,,2015-07-29 09:44:00,
2015-07-29 05:54:00,73.0,73.0,29.95,NE,35,0.0,0.0,100,-99.99,,,-99.99,,2015-07-29 09:54:00,
2015-07-29 06:03:00,73.0,73.0,29.96,NE,35,0.0,0.0,100,-99.99,,,-99.99,,2015-07-29 10:03:00,
2015-07-29 06:13:00,73.0,73.0,29.96,NE,35,0.0,0.0,100,-99.99,,,-99.99,,2015-07-29 10:13:00,
2015-07-29 06:23:00,73.0,73.0,29.95,NE,35,0.0,0.0,100,-99.99,,,-99.99,,2015-07-29 10:23:00,
2015-07-29 06:34:00,73.0,73.0,29.95,NE,35,0.0,0.0,100,-99.99,,,-99.99,,2015-07-29 10:34:00,
2015-07-29 06:46:00,73.0,73.0,29.95,NE,35,0.0,0.0,100,-99.99,,,-99.99,,2015-07-29 10:46:00,
2015-07-29 06:54:00,73.0,73.0,29.95,NE,35,0.0,0.0,100,-99.99,,,-99.99,,2015-07-29 10:54:00,
2015-07-29 07:04:00,72.0,72.0,29.96,NE,35,0.0,0.0,100,-99.99,,,-99.99,,2015-07-29 11:04:00,
2015-07-29 07:13:00,72.0,72.0,29.96,NE,35,0.0,0.0,100,-99.99,,,-99.99,,2015-07-29 11:13:00,
2015-07-29 07:23:00,72.0,72.0,29.96,NE,35,0.0,0.0,100,-99.99,,,-99.99,,2015-07-29 11:23:00,
2015-07-29 07:33:00,72.0,72.0,29.96,NE,35,0.0,0.0,100,-99.99,,,-99.99,,2015-07-29 11:33:00,
2015-07-29 07:44:00,72.0,72.0,29.96,NE,35,0.0,0.0,100,-99.99,,,-99.99,,2015-07-29 11:44:00,
2015-07-29 07:54:00,73.0,73.0,29.97,NE,35,0.0,0.0,100,-99.99,,,-99.99,,2015-07-29 11:54:00,
2015-07-29 08:03:00,74.0,74.0,29.97,NE,35,0.0,0.0,100,-99.99,,,-99.99,,2015-07-29 12:03:00,
2015-07-29 08:13:00,74.0,74.0,29.97,NE,35,0.0,0.0,100,-99.99,,,-99.99,,2015-07-29 12:13:00,
2015-07-29 08:24:00,75.0,75.0,29.97,NE,35,0.0,2.0,100,-99.99,,,-99.99,,2015-07-29 12:24:00,
2015-07-29 08:34:00,75.0,75.0,29.97,NE,35,0.0,1.0,100,-99.99,,,-99.99,,2015-07-29 12:34:00,
2015-07-29 08:43:00,75.0,75.0,29.97,NE,35,0.0,-999.0,100,-99.99,,,-99.99,,2015-07-29 12:43:00,
2015-07-29 08:54:00,76.0,76.0,29.97,NE,34,0.0,0.0,100,-99.99,,,-99.99,,2015-07-29 12:54:00,
2015-07-29 09:13:00,77.0,77.0,29.97,NE,34,0.0,1.0,100,-99.99,,,-99.99,,2015-07-29 13:13:00,
2015-07-29 09:23:00,78.0,78.0,29.97,NE,34,0.0,0.0,100,-99.99,,,-99.99,,2015-07-29 13:23:00,
2015-07-29 09:34:00,79.0,79.0,29.97,NNE,27,0.0,1.0,100,-99.99,,,-99.99,,2015-07-29 13:34:00,
2015-07-29 09:43:00,79.0,79.0,29.97,NNE,27,0.0,1.0,100,-99.99,,,-99.99,,2015-07-29 13:43:00,
2015-07-29 09:54:00,80.0,79.0,29.97,NNE,32,0.0,1.0,97,-99.99,,,-99.99,,2015-07-29 13:54:00,
2015-07-29 10:03:00,82.0,78.0,29.97,NNE,21,0.0,1.0,89,-99.99,,,-99.99,,2015-07-29 14:03:00,
2015-07-29 10:13:00,82.0,78.0,29.97,NNE,21,0.0,1.0,89,-99.99,,,-99.99,,2015-07-29 14:13:00,
2015-07-29 10:23:00,84.0,78.0,29.96,NNE,23,0.0,1.0,83,-99.99,,,-99.99,,2015-07-29 14:23:00,
2015-07-29 10:33:00,85.0,77.0,29.97,NNE,23,1.0,2.0,78,-99.99,,,-99.99,,2015-07-29 14:33:00,
2015-07-29 10:43:00,85.0,77.0,29.97,NNE,23,1.0,2.0,78,-99.99,,,-99.99,,2015-07-29 14:43:00,
2015-07-29 10:54:00,86.0,78.0,29.96,NNE,23,2.0,5.0,77,-99.99,,,-99.99,,2015-07-29 14:54:00,
2015-07-29 11:03:00,87.0,78.0,29.96,NNE,23,0.0,3.0,74,-99.99,,,-99.99,,2015-07-29 15:03:00,
2015-07-29 11:13:00,87.0,78.0,29.96,NNE,23,0.0,3.0,74,-99.99,,,-99.99,,2015-07-29 15:13:00,
2015-07-29 11:23:00,88.0,77.0,29.97,NNE,25,0.0,2.0,70,-99.99,,,-99.99,,2015-07-29 15:23:00,
2015-07-29 11:34:00,89.0,78.0,29.97,NNE,24,0.0,2.0,71,-99.99,,,-99.99,,2015-07-29 15:34:00,
2015-07-29 11:44:00,89.0,78.0,29.97,NNE,24,0.0,2.0,71,-99.99,,,-99.99,,2015-07-29 15:44:00,
2015-07-29 11:53:00,89.0,77.0,29.96,NNE,25,0.0,1.0,69,-99.99,,,-99.99,,2015-07-29 15:53:00,
2015-07-29 12:04:00,89.0,77.0,29.96,North,-9999,-999.9,-999.0,67,-99.99,,,-99.99,,2015-07-29 16:04:00,
2015-07-29 12:13:00,89.0,77.0,29.96,NNE,23,1.0,2.0,67,-99.99,,,-99.99,,2015-07-29 16:13:00,
2015-07-29 12:24:00,90.0,77.0,29.96,NNE,27,1.0,5.0,66,-99.99,,,-99.99,,2015-07-29 16:24:00,
2015-07-29 12:36:00,85.0,77.0,29.96,NE,42,0.0,3.0,78,-99.99,,,-99.99,,2015-07-29 16:36:00,
2015-07-29 12:54:00,83.0,77.0,29.96,East,86,6.0,8.0,83,-99.99,,,-99.99,,2015-07-29 16:54:00,
2015-07-29 13:04:00,84.0,78.0,29.96,East,86,0.0,8.0,82,-99.99,,,-99.99,,2015-07-29 17:04:00,
2015-07-29 13:24:00,86.0,78.0,29.95,NE,56,0.0,3.0,77,-99.99,,,-99.99,,2015-07-29 17:24:00,
2015-07-29 13:34:00,88.0,78.0,29.95,NE,56,1.0,6.0,72,-99.99,,,-99.99,,2015-07-29 17:34:00,
2015-07-29 13:44:00,88.0,78.0,29.95,NE,56,1.0,6.0,72,-99.99,,,-99.99,,2015-07-29 17:44:00,
2015-07-29 14:03:00,89.0,77.0,29.95,ENE,58,3.0,6.0,69,-99.99,,,-99.99,,2015-07-29 18:03:00,
2015-07-29 14:12:00,89.0,77.0,29.95,ENE,58,3.0,6.0,69,-99.99,,,-99.99,,2015-07-29 18:12:00,
2015-07-29 14:22:00,89.0,77.0,29.95,ENE,58,3.0,6.0,69,-99.99,,,-99.99,,2015-07-29 18:22:00,
2015-07-29 14:33:00,91.0,78.0,29.95,NE,56,0.0,5.0,66,-99.99,,,-99.99,,2015-07-29 18:33:00,
2015-07-29 14:44:00,92.0,78.0,29.94,ENE,71,0.0,7.0,64,-99.99,,,-99.99,,2015-07-29 18:44:00,
2015-07-29 14:54:00,92.0,79.0,29.94,ENE,72,2.0,7.0,65,-99.99,,,-99.99,,2015-07-29 18:54:00,
2015-07-29 15:04:00,90.0,77.0,29.94,East,99,0.0,6.0,65,-99.99,,,-99.99,,2015-07-29 19:04:00,
2015-07-29 15:13:00,90.0,77.0,29.94,East,99,0.0,6.0,65,-99.99,,,-99.99,,2015-07-29 19:13:00,